K1TTT Weather Reports


time (UTC)temp
C
wind
direction
speed
KPH
gust
KPH
rain 1hr
cm
rain 24hr
cm
rain mn
cm
humidity
%
barometer
mb
20260505212614 23 193 14.5 35.4 0.00 0.00 0.00 38 1004.8
20260505212101 23 242 11.3 40.2 0.00 0.00 0.00 37 1004.7
20260505211610 23 202 16.1 41.8 0.00 0.00 0.00 35 1004.5
20260505211053 23 237 14.5 46.7 0.00 0.00 0.00 34 1004.6
20260505210530 23 137 17.7 33.8 0.00 0.00 0.00 34 1004.5
20260505210056 23 262 9.7 46.7 0.00 0.00 0.00 34 1004.2
20260505205525 23 284 29.0 51.5 0.00 0.00 0.00 33 1004.5
20260505205134 24 208 19.3 45.1 0.00 0.00 0.00 34 1004.6
20260505204600 24 230 17.7 38.6 0.00 0.00 0.00 33 1004.8
20260505204149 24 201 17.7 33.8 0.00 0.00 0.00 35 1004.7
20260505203541 24 160 14.5 33.8 0.00 0.00 0.00 35 1004.7
20260505203107 23 228 16.1 48.3 0.00 0.00 0.00 35 1004.4
20260505202541 23 235 17.7 35.4 0.00 0.00 0.00 35 1004.6
20260505202038 23 219 16.1 41.8 0.00 0.00 0.00 36 1004.5
20260505201606 24 161 17.7 41.8 0.00 0.00 0.00 35 1004.5
20260505201039 23 177 17.7 40.2 0.00 0.00 0.00 34 1004.5
20260505200650 23 192 19.3 40.2 0.00 0.00 0.00 34 1004.6
20260505200546 23 192 19.3 40.2 0.00 0.00 0.00 34 1004.6
20260505200044 23 215 16.1 30.6 0.00 0.00 0.00 35 1004.6
20260505195537 23 158 16.1 41.8 0.00 0.00 0.00 35 1004.6
20260505195032 24 181 17.7 41.8 0.00 0.00 0.00 35 1004.9
20260505194554 24 220 20.9 41.8 0.00 0.00 0.00 35 1004.7
20260505194142 24 195 12.9 29.0 0.00 0.00 0.00 36 1004.7
20260505193608 23 201 14.5 35.4 0.00 0.00 0.00 36 1004.6
20260505193044 23 230 20.9 51.5 0.00 0.00 0.00 36 1004.9
20260505192538 23 189 24.1 51.5 0.00 0.00 0.00 37 1005.2
20260505192034 23 235 24.1 43.5 0.00 0.00 0.00 38 1005.1
20260505191604 23 243 20.9 43.5 0.00 0.00 0.00 38 1005.1
20260505191035 23 146 20.9 40.2 0.00 0.00 0.00 39 1005.0
20260505190606 23 273 19.3 43.5 0.00 0.00 0.00 39 1005.2
20260505190039 23 197 17.7 43.5 0.00 0.00 0.00 39 1005.0
20260505185623 23 195 17.7 40.2 0.00 0.00 0.00 38 1005.1
20260505185036 23 142 19.3 38.6 0.00 0.00 0.00 38 1005.3
20260505184605 23 218 22.5 38.6 0.00 0.00 0.00 38 1005.4
20260505184041 22 163 19.3 48.3 0.00 0.00 0.00 40 1005.5
20260505183610 22 156 14.5 62.8 0.00 0.00 0.00 40 1005.6
20260505183040 23 177 27.4 62.8 0.00 0.00 0.00 37 1005.5
20260505182627 23 211 19.3 45.1 0.00 0.00 0.00 38 1005.5
20260505182545 23 211 19.3 45.1 0.00 0.00 0.00 38 1005.5
20260505182040 23 197 14.5 35.4 0.00 0.00 0.00 39 1005.4
20260505181526 23 166 14.5 51.5 0.00 0.00 0.00 39 1005.5
20260505181051 23 189 22.5 51.5 0.00 0.00 0.00 38 1005.7
20260505180527 23 199 25.7 41.8 0.00 0.00 0.00 37 1005.5
20260505180053 22 235 14.5 43.5 0.00 0.00 0.00 39 1005.6
20260505175549 22 170 19.3 43.5 0.00 0.00 0.00 39 1005.5
20260505175155 22 239 22.5 54.7 0.00 0.00 0.00 41 1005.8
20260505174548 22 222 20.9 54.7 0.00 0.00 0.00 40 1006.6
20260505174045 22 136 20.9 43.5 0.00 0.00 0.00 41 1005.7
20260505173542 22 204 22.5 43.5 0.00 0.00 0.00 43 1005.8
20260505173038 22 229 14.5 53.1 0.00 0.00 0.00 42 1005.8
20260505172645 22 161 17.7 53.1 0.00 0.00 0.00 42 1006.1
20260505172037 22 170 19.3 29.0 0.00 0.00 0.00 41 1006.1
20260505171534 22 174 14.5 32.2 0.00 0.00 0.00 41 1005.9
20260505171059 22 167 11.3 29.0 0.00 0.00 0.00 43 1005.8
20260505170534 22 193 12.9 32.2 0.00 0.00 0.00 42 1006.0
20260505165534 22 195 16.1 45.1 0.00 0.00 0.00 42 1006.1
20260505165103 22 232 17.7 48.3 0.00 0.00 0.00 43 1006.1
20260505164539 22 226 20.9 48.3 0.00 0.00 0.00 42 1006.5
20260505164109 22 217 11.3 35.4 0.00 0.00 0.00 42 1006.3
20260505163552 22 218 16.1 37.0 0.00 0.00 0.00 42 1006.5
20260505163059 22 221 16.1 41.8 0.00 0.00 0.00 43 1006.4
20260505162530 22 236 19.3 41.8 0.00 0.00 0.00 41 1006.6
20260505162101 22 213 14.5 33.8 0.00 0.00 0.00 42 1006.8
20260505161535 22 193 14.5 27.4 0.00 0.00 0.00 43 1006.7
20260505161029 22 217 12.9 43.5 0.00 0.00 0.00 44 1006.6
20260505160553 22 226 19.3 43.5 0.00 0.00 0.00 43 1006.7
20260505153111 21 181 17.7 37.0 0.00 0.00 0.00 47 1007.2
20260505152545 21 156 14.5 37.0 0.00 0.00 0.00 47 1007.3
20260505152133 21 262 16.1 35.4 0.00 0.00 0.00 47 1007.5
20260505151656 21 290 19.3 35.4 0.00 0.00 0.00 48 1007.2
20260505151613 21 290 19.3 35.4 0.00 0.00 0.00 48 1007.2
20260505151048 20 222 16.1 32.2 0.00 0.00 0.00 49 1007.1
20260505150525 20 193 17.7 38.6 0.00 0.00 0.00 48 1007.4
20260505150115 20 229 20.9 38.6 0.00 0.00 0.00 47 1007.5
20260505140553 20 263 19.3 43.5 0.00 0.00 0.00 50 1007.7
20260505130145 17 243 11.3 27.4 0.00 0.00 0.00 55 1007.6
20260505125032 17 185 4.8 25.7 0.00 0.00 0.00 56 1007.4
20260505124557 17 247 14.5 25.7 0.00 0.00 0.00 56 1007.5
20260505124126 17 243 11.3 24.1 0.00 0.00 0.00 56 1007.6
20260505123540 17 218 12.9 24.1 0.00 0.00 0.00 56 1007.5
20260505123036 17 208 9.7 24.1 0.00 0.00 0.00 57 1007.5
20260505122604 17 251 8.0 19.3 0.00 0.00 0.00 57 1007.4
20260505122036 16 238 11.3 19.3 0.00 0.00 0.00 58 1007.5
20260505121604 16 175 6.4 19.3 0.00 0.00 0.00 58 1007.5
20260505121112 16 228 12.9 19.3 0.00 0.00 0.00 58 1007.5
20260505120547 16 239 8.0 24.1 0.00 0.00 0.00 60 1007.3
20260505120138 15 188 12.9 25.7 0.00 0.00 0.00 60 1007.4
20260505115528 15 175 12.9 25.7 0.00 0.00 0.00 60 1007.3
20260505115120 15 160 9.7 17.7 0.00 0.00 0.00 61 1007.3
20260505114529 15 199 11.3 17.7 0.00 0.00 0.00 61 1007.3
20260505114025 15 233 9.7 19.3 0.00 0.00 0.00 61 1007.3
20260505113549 14 198 8.0 16.1 0.00 0.00 0.00 62 1007.1
20260505113059 14 224 8.0 17.7 0.00 0.00 0.00 62 1007.3
20260505112532 13 233 9.7 17.7 0.00 0.00 0.00 63 1007.3
20260505112028 13 206 6.4 16.1 0.00 0.00 0.00 63 1007.2
20260505111616 13 231 8.0 17.7 0.00 0.00 0.00 63 1007.3
20260505111118 13 191 6.4 17.7 0.00 0.00 0.00 63 1007.0
20260505110626 13 208 8.0 20.9 0.00 0.00 0.00 64 1007.1
20260505102107 12 239 4.8 14.5 0.00 0.00 0.00 66 1006.8
20260505101541 12 330 6.4 14.5 0.00 0.00 0.00 66 1006.7
20260505101148 12 253 3.2 14.5 0.00 0.00 0.00 66 1006.7
20260505100540 12 206 8.0 16.1 0.00 0.00 0.00 66 1006.7
20260505100112 11 245 4.8 11.3 0.00 0.00 0.00 66 1006.7
20260505095552 12 243 3.2 14.5 0.00 0.00 0.00 66 1006.6
20260505095047 12 310 6.4 14.5 0.00 0.00 0.00 66 1006.4
20260505094542 12 224 3.2 11.3 0.00 0.00 0.00 65 1006.4
20260505094037 12 239 4.8 11.3 0.00 0.00 0.00 65 1006.5
20260505093606 12 229 4.8 12.9 0.00 0.00 0.00 64 1006.4
20260505093039 12 255 4.8 12.9 0.00 0.00 0.00 64 1006.6
20260505092533 12 213 6.4 16.1 0.00 0.00 0.00 63 1006.5
20260505092029 12 211 4.8 19.3 0.00 0.00 0.00 63 1006.4
20260505091527 12 201 6.4 17.7 0.00 0.00 0.00 62 1006.4
20260505091051 12 217 4.8 22.5 0.00 0.00 0.00 62 1006.6
20260505090556 12 210 4.8 22.5 0.00 0.00 0.00 62 1006.7
20260505090032 12 236 6.4 17.7 0.00 0.00 0.00 62 1006.6
20260505085600 12 220 8.0 19.3 0.00 0.00 0.00 62 1006.7
20260505085108 12 212 9.7 17.7 0.00 0.00 0.00 62 1006.8
20260505084540 12 258 8.0 16.1 0.00 0.00 0.00 62 1006.9
20260505084036 12 208 8.0 16.1 0.00 0.00 0.00 62 1006.9
20260505083625 12 218 6.4 17.7 0.00 0.00 0.00 62 1006.9
20260505083113 12 222 8.0 16.1 0.00 0.00 0.00 61 1006.9
20260505082548 12 235 8.0 19.3 0.00 0.00 0.00 61 1007.0
20260505082044 12 268 9.7 19.3 0.00 0.00 0.00 61 1007.1
20260505081538 12 189 8.0 22.5 0.00 0.00 0.00 61 1007.0
20260505081107 12 212 14.5 22.5 0.00 0.00 0.00 61 1007.0
20260505080611 12 216 9.7 17.7 0.00 0.00 0.00 61 1007.0
20260505080045 12 217 8.0 17.7 0.00 0.00 0.00 61 1006.9
20260505075540 12 231 8.0 16.1 0.00 0.00 0.00 61 1006.9
20260505075036 12 192 6.4 14.5 0.00 0.00 0.00 60 1007.0
20260505074532 12 229 6.4 17.7 0.00 0.00 0.00 60 1007.0
20260505074027 12 235 6.4 24.1 0.00 0.00 0.00 60 1007.1
20260505073552 12 186 11.3 24.1 0.00 0.00 0.00 60 1007.0
20260505073047 12 242 9.7 19.3 0.00 0.00 0.00 60 1007.0
20260505072542 12 237 4.8 11.3 0.00 0.00 0.00 60 1007.0
20260505072037 12 214 6.4 16.1 0.00 0.00 0.00 60 1007.1
20260505071533 12 264 6.4 17.7 0.00 0.00 0.00 59 1007.0
20260505071120 12 238 11.3 17.7 0.00 0.00 0.00 59 1007.0
20260505070609 12 190 6.4 14.5 0.00 0.00 0.00 59 1007.1
20260505070045 12 224 6.4 19.3 0.00 0.00 0.00 59 1007.1
20260505065613 13 258 6.4 19.3 0.00 0.00 0.00 59 1007.1
20260505065055 13 211 6.4 14.5 0.00 0.00 0.00 58 1007.2
20260505064531 13 195 6.4 14.5 0.00 0.00 0.00 58 1007.1
20260505064027 13 234 4.8 16.1 0.00 0.00 0.00 58 1007.2
20260505063548 13 214 6.4 16.1 0.00 0.00 0.00 58 1007.1
20260505063044 13 225 8.0 19.3 0.00 0.00 0.00 58 1007.1
20260505062539 13 206 11.3 19.3 0.00 0.00 0.00 57 1007.3
20260505062034 13 208 11.3 25.7 0.00 0.00 0.00 57 1007.3
20260505061531 13 231 9.7 25.7 0.00 0.00 0.00 58 1007.3
20260505061101 13 243 9.7 22.5 0.00 0.00 0.00 58 1007.4
20260505060608 13 216 12.9 24.1 0.00 0.00 0.00 58 1007.4
20260505060053 13 221 8.0 22.5 0.00 0.00 0.00 58 1007.5
20260505055548 12 204 9.7 16.1 0.00 0.00 0.00 58 1007.4
20260505055049 12 256 6.4 16.1 0.00 0.00 0.00 58 1007.6
20260505054618 12 178 6.4 19.3 0.00 0.00 0.00 58 1007.6
20260505054032 12 172 9.7 20.9 0.00 0.00 0.00 58 1007.6
20260505053557 12 191 6.4 22.5 0.00 0.00 0.00 58 1007.6
20260505053033 12 145 9.7 19.3 0.00 0.00 0.00 58 1007.8
20260505052527 12 172 6.4 17.7 0.00 0.00 0.00 58 1007.7
20260505052052 12 170 9.7 19.3 0.00 0.00 0.00 58 1007.7
20260505051555 12 160 11.3 19.3 0.00 0.00 0.00 59 1007.7
20260505051120 12 222 6.4 17.7 0.00 0.00 0.00 59 1007.7
20260505050533 12 173 9.7 17.7 0.00 0.00 0.00 60 1007.7
20260505041536 12 220 8.0 20.9 0.00 0.00 0.00 61 1007.9
20260505041128 12 184 11.3 19.3 0.00 0.00 0.00 62 1007.9
20260505040541 12 220 4.8 19.3 0.00 0.00 0.00 61 1007.9
20260505040106 12 202 9.7 19.3 0.00 0.00 0.00 61 1007.9
20260505035540 12 201 9.7 20.9 0.00 0.00 0.00 61 1007.8
20260505035036 12 197 11.3 27.4 0.00 0.00 0.00 62 1007.7
20260505034655 12 201 11.3 27.4 0.00 0.00 0.00 62 1007.7
20260505034049 12 236 8.0 19.3 0.00 0.00 0.00 62 1007.6
20260505033547 12 215 9.7 19.3 0.00 0.00 0.00 62 1007.7
20260505033055 12 158 11.3 19.3 0.00 0.00 0.00 62 1007.6
20260505032528 12 225 8.0 19.3 0.00 0.00 0.00 62 1007.6
20260505032048 12 202 8.0 17.7 0.00 0.00 0.00 63 1007.6
20260505031553 12 162 8.0 16.1 0.00 0.00 0.00 63 1007.5
20260505031056 12 189 8.0 17.7 0.00 0.00 0.00 63 1007.6
20260505030605 12 221 8.0 24.1 0.00 0.00 0.00 62 1007.6
20260505030050 12 159 8.0 20.9 0.00 0.00 0.00 62 1007.5
20260505025558 12 210 11.3 22.5 0.00 0.00 0.00 62 1007.5
20260505025143 12 213 11.3 22.5 0.00 0.00 0.00 62 1007.5
20260505024535 12 159 8.0 19.3 0.00 0.00 0.00 62 1007.5
20260505024031 12 191 11.3 20.9 0.00 0.00 0.00 62 1007.5
20260505023555 12 198 6.4 27.4 0.00 0.00 0.00 61 1007.5
20260505023030 12 189 8.0 24.1 0.00 0.00 0.00 61 1007.5
20260505022619 12 187 9.7 24.1 0.00 0.00 0.00 61 1007.5
20260505022034 12 148 12.9 24.1 0.00 0.00 0.00 61 1007.5
20260505021529 12 178 4.8 19.3 0.00 0.00 0.00 60 1007.5
20260505021058 12 230 6.4 16.1 0.00 0.00 0.00 60 1007.5
20260505020528 12 183 8.0 22.5 0.00 0.00 0.00 59 1007.6
20260505020059 12 172 9.7 24.1 0.00 0.00 0.00 59 1007.4
20260505015625 12 179 9.7 16.1 0.00 0.00 0.00 58 1007.4
20260505015113 13 178 9.7 17.7 0.00 0.00 0.00 57 1007.4
20260505014545 13 141 8.0 19.3 0.00 0.00 0.00 56 1007.4
20260505014041 13 167 9.7 19.3 0.00 0.00 0.00 54 1007.2
20260505013534 13 162 8.0 16.1 0.00 0.00 0.00 52 1007.2
20260505013122 13 146 8.0 16.1 0.00 0.00 0.00 50 1007.1
20260505012532 13 135 6.4 12.9 0.00 0.00 0.00 49 1007.0
20260505012141 14 144 6.4 12.9 0.00 0.00 0.00 48 1007.0
20260505011533 14 145 6.4 12.9 0.00 0.00 0.00 48 1007.0
20260505011029 14 179 4.8 9.7 0.00 0.00 0.00 48 1006.9
20260505010525 14 174 4.8 9.7 0.00 0.00 0.00 47 1006.9
20260505010050 14 163 4.8 9.7 0.00 0.00 0.00 47 1006.9
20260505005546 14 178 4.8 11.3 0.00 0.00 0.00 47 1006.8
20260505005043 14 162 4.8 11.3 0.00 0.00 0.00 47 1006.7
20260505004607 14 173 4.8 9.7 0.00 0.00 0.00 47 1006.6
20260505004050 14 179 4.8 9.7 0.00 0.00 0.00 46 1006.4
20260505003545 15 170 3.2 8.0 0.00 0.00 0.00 46 1006.5
20260505003042 15 170 3.2 9.7 0.00 0.00 0.00 46 1006.4
20260505002610 15 156 4.8 12.9 0.00 0.00 0.00 45 1006.4
20260505002045 15 179 4.8 8.0 0.00 0.00 0.00 45 1006.4
20260505001550 15 172 3.2 6.4 0.00 0.00 0.00 45 1006.4
20260505001045 15 158 4.8 12.9 0.00 0.00 0.00 44 1006.4
20260505000544 15 189 3.2 12.9 0.00 0.00 0.00 44 1006.4
20260505000040 15 176 8.0 11.3 0.00 0.00 0.00 44 1006.2
20260504235551 15 205 4.8 19.3 0.00 0.00 0.00 44 1006.3
20260504235142 15 174 11.3 19.3 0.00 0.00 0.00 43 1006.2
20260504234629 15 178 8.0 14.5 0.00 0.00 0.00 43 1006.1
20260504231538 16 221 8.0 20.9 0.00 0.00 0.00 40 1005.9
20260504231035 16 268 11.3 25.7 0.00 0.00 0.00 40 1005.8
20260504230602 16 216 8.0 17.7 0.00 0.00 0.00 40 1005.8
20260504230110 17 218 12.9 19.3 0.00 0.00 0.00 40 1005.5
20260504225552 17 192 8.0 17.7 0.00 0.00 0.00 39 1005.4
20260504225137 17 229 11.3 17.7 0.00 0.00 0.00 39 1005.4
20260504224604 17 228 8.0 20.9 0.00 0.00 0.00 39 1005.4
20260504224133 17 202 6.4 24.1 0.00 0.00 0.00 39 1005.5
20260504223546 17 204 11.3 25.7 0.00 0.00 0.00 39 1005.5
20260504223043 17 194 6.4 24.1 0.00 0.00 0.00 39 1005.4
20260504222612 17 216 17.7 24.1 0.00 0.00 0.00 39 1005.5
20260504222046 17 139 9.7 30.6 0.00 0.00 0.00 40 1005.5
20260504221545 17 206 14.5 30.6 0.00 0.00 0.00 39 1005.7
20260504221043 17 194 14.5 25.7 0.00 0.00 0.00 39 1005.5
20260504220611 17 188 11.3 22.5 0.00 0.00 0.00 39 1005.6
20260504220026 17 139 11.3 20.9 0.00 0.00 0.00 39 1005.5
20260504215615 17 196 14.5 29.0 0.00 0.00 0.00 39 1005.5
20260504215058 17 210 11.3 29.0 0.00 0.00 0.00 39 1005.5
20260504214533 17 250 11.3 27.4 0.00 0.00 0.00 39 1005.5
20260504214057 17 206 16.1 27.4 0.00 0.00 0.00 39 1005.6
20260504213527 17 199 11.3 29.0 0.00 0.00 0.00 39 1005.8
20260504213148 17 176 12.9 29.0 0.00 0.00 0.00 39 1005.7